This demonstration page uses our WeatherBlox Daily Observations layout. Learn more.

Left ArrowRight Arrow

Hourly Observations for May 9, 2017

Temp ( °F °C ) Dew Point ( °F °C ) Humidity (%) Winds ( mph kmh ) Pressure ( in mb ) Visibility ( mi km ) Precip ( " mm )
12:53 am 00:53 Clear 59 15 55 12.8 87 87 Calm 30.06 1018 10 16 0.00 0.00
1:53 am 01:53 Clear 60 15.6 54 12.2 80 80 Calm 30.05 1018 10 16 0.00 0.00
2:53 am 02:53 Clear 58 14.4 54 12.2 87 87 Calm 30.03 1017 10 16 0.00 0.00
3:53 am 03:53 Clear 55 12.8 54 12.2 96 96 Calm 30.04 1017 10 16 0.00 0.00
4:53 am 04:53 Clear 54 12.2 54 12.2 100 100 Calm 30.03 1017 10 16 0.00 0.00
5:53 am 05:53 Clear 56 13.3 54 12.2 93 93 Calm 30.04 1017 10 16 0.00 0.00
6:53 am 06:53 Sunny 55 12.8 53 11.7 93 93 Calm 30.04 1017 10 16 0.00 0.00
7:53 am 07:53 Sunny 58 14.4 55 12.8 90 90 WSW 3 6 30.05 1018 10 16 0.00 0.00
8:53 am 08:53 Sunny 65 18.3 56 13.3 73 73 VRB 3 6 30.06 1018 10 16 0.00 0.00
9:53 am 09:53 Sunny 72 22.2 58 14.4 61 61 W 3 6 30.07 1018 10 16 0.00 0.00
10:53 am 10:53 Sunny 78 25.6 57 13.9 48 48 NW 6 9 30.07 1018 10 16 0.00 0.00
11:53 am 11:53 Sunny 80 26.7 56 13.3 44 44 W 9 15 30.07 1018 10 16 0.00 0.00
12:53 pm 12:53 Sunny 82 27.8 56 13.3 41 41 WNW 12 19 30.06 1018 10 16 0.00 0.00
1:53 pm 13:53 Sunny 84 28.9 57 13.9 40 40 NW 13 20 30.04 1017 10 16 0.00 0.00
2:22 pm 14:22 Sunny 84 29 54 12 35 35 W 9 15 30.03 1017 10 16 0.00 0.00
2:53 pm 14:53 Sunny 85 29.4 55 12.8 36 36 WNW 14 22 30.03 1017 10 16 0.00 0.00
3:53 pm 15:53 Sunny 85 29.4 53 11.7 33 33 WSW 9 15 30.01 1016 10 16 0.00 0.00
4:53 pm 16:53 Sunny 85 29.4 54 12.2 35 35 W 10 17 29.98 1015 10 16 0.00 0.00
5:53 pm 17:53 Sunny 85 29.4 53 11.7 33 33 WNW 15 24 29.98 1015 10 16 0.00 0.00
6:53 pm 18:53 Sunny 84 28.9 53 11.7 34 34 W 9 15 29.96 1015 10 16 0.00 0.00
7:53 pm 19:53 Sunny 82 27.8 54 12.2 38 38 SW 8 13 29.96 1015 10 16 0.00 0.00
8:53 pm 20:53 Clear 77 25 55 12.8 47 47 Calm 29.98 1015 10 16 0.00 0.00
9:53 pm 21:53 Clear 70 21.1 59 15 68 68 Calm 29.99 1016 10 16 0.00 0.00
10:53 pm 22:53 Clear 67 19.4 59 15 76 76 Calm 30.00 1016 10 16 0.00 0.00
11:53 pm 23:53 Clear 69 20.6 57 13.9 66 66 SW 3 6 30.00 1016 10 16 0.00 0.00

Powered by AerisWeather